Location: Goettingen
(51.5300°N, 9.9433°E)
Time: 11:38:42
(UTC+02:00)

ISS - Pass Details

Date: 15 May 2025
Orbit: 416 x 419 km, 51.6° (Epoch: 18 May)

Event Time Altitude Azimuth Distance (km) Brightness Sun altitude
Rises 00:37:29 0° 282° (WNW) 2,362 0.3 -19.1°
Reaches altitude 10° 00:39:35 10° 279° (W) 1,496 -0.7 -19.1°
Enters shadow 00:42:21 52° 248° (WSW) 526 -3.4 -19.2°
